This demonstration page uses our WeatherBlox Daily Observations layout. Learn more.

Left ArrowRight Arrow

39.92423, -83.80882

Hourly Observations for July 25, 2022

Temp ( °F °C ) Dew Point ( °F °C ) Humidity (%) Winds ( mph kmh ) Pressure ( in mb ) Visibility ( mi km ) Precip ( " mm )
12:56 am 00:56 Mostly Cloudy 75 24 N/A N/A SW 6 9 29.92 1013 10 16 0.02 0.51
1:36 am 01:36 Cloudy 77 25 N/A N/A WSW 8 13 29.90 1013 10 16 0.00 0.00
1:56 am 01:56 Cloudy 77 25 N/A N/A WSW 7 11 29.92 1013 10 16 0.00 0.00
2:56 am 02:56 Cloudy 75 24 N/A N/A W 13 20 29.92 1013 10 16 0.01 0.25
3:56 am 03:56 Cloudy 75 24 N/A N/A W 10 17 29.93 1014 10 16 0.09 2.29
4:56 am 04:56 Cloudy 75 24 N/A N/A W 9 15 29.93 1014 10 16 0.00 0.00
5:41 am 05:41 Cloudy 73 23 N/A N/A W 7 11 29.91 1013 10 16 0.00 0.00
5:56 am 05:56 Cloudy 73 23 N/A N/A W 7 11 29.93 1014 10 16 0.00 0.00
6:56 am 06:56 Cloudy 73 23 N/A N/A W 5 7 29.96 1015 10 16 0.01 0.25
7:09 am 07:09 Cloudy 73 23 N/A N/A Calm 29.94 1014 10 16 0.00 0.00
7:24 am 07:24 Cloudy 73 23 N/A N/A WNW 5 7 29.94 1014 10 16 0.00 0.00
7:56 am 07:56 Cloudy 73 23 N/A N/A NNW 7 11 29.96 1015 10 16 0.00 0.00
8:16 am 08:16 Cloudy 73 23 73 23 100 100 N 8 13 29.95 1014 10 16 0.00 0.00
8:56 am 08:56 Cloudy 76 24.4 67 19.4 74 74 NE 8 13 29.98 1015 10 16 0.00 0.00
9:56 am 09:56 Mostly Cloudy 78 25.6 66 18.9 67 67 N 7 11 29.96 1015 10 16 0.00 0.00
10:56 am 10:56 Partly Cloudy 78 25.6 64 17.8 62 62 Calm 30.01 1016 10 16 0.00 0.00
11:56 am 11:56 Mostly Cloudy 80 26.7 66 18.9 62 62 VRB 3 6 30.02 1017 10 16 0.00 0.00
12:56 pm 12:56 Partly Cloudy 81 27.2 66 18.9 61 61 NNW 3 6 30.02 1017 10 16 0.00 0.00
1:56 pm 13:56 Mostly Sunny 81 27.2 65 18.3 58 58 N 5 7 30.01 1016 10 16 0.00 0.00
2:56 pm 14:56 Mostly Sunny 81 27.2 63 17.2 54 54 VRB 5 7 30.01 1016 10 16 0.00 0.00
3:56 pm 15:56 Mostly Sunny 80 26.7 63 17.2 56 56 NNW 6 9 30.00 1016 10 16 0.00 0.00
4:56 pm 16:56 Sunny 80 26.7 63 17.2 56 56 NW 7 11 30.00 1016 10 16 0.00 0.00
5:56 pm 17:56 Partly Cloudy 79 26.1 63 17.2 58 58 N 9 15 30.00 1016 10 16 0.00 0.00
6:56 pm 18:56 Mostly Sunny 78 25.6 63 17.2 60 60 NNW 7 11 30.00 1016 10 16 0.00 0.00
7:56 pm 19:56 Sunny 75 23.9 64 17.8 69 69 NNW 6 9 30.01 1016 10 16 0.00 0.00
8:56 pm 20:56 Clear 73 22.8 65 18.3 76 76 NNW 6 9 30.03 1017 10 16 0.00 0.00
9:56 pm 21:56 Clear 71 21.7 64 17.8 79 79 NNE 5 7 30.04 1017 10 16 0.00 0.00
10:56 pm 22:56 Mostly Clear 71 21.7 65 18.3 81 81 N 3 6 30.06 1018 10 16 0.02 0.51
11:56 pm 23:56 Mostly Cloudy 69 20.6 69 20.6 100 100 Calm 30.06 1018 10 16 0.00 0.00

Powered by AerisWeather